Time,TemperatureF,DewpointF,PressureIn,WindDirection,WindDirectionDegrees,WindSpeedMPH,WindSpeedGustMPH,Humidity,HourlyPrecipIn,Conditions,Clouds,dailyrainin,SoftwareType,DateUTC
2013-05-09 00:00:00,58.1,54.6,30.02,ENE,62,6.0,6.0,88,0.00,,,0.00,Wunderground v.1.15,2013-05-09 05:00:00,
2013-05-09 00:05:00,58.1,54.6,30.02,NE,56,6.0,9.0,88,0.00,,,0.00,Wunderground v.1.15,2013-05-09 05:05:00,
2013-05-09 00:10:00,58.1,54.6,30.02,NE,37,6.0,9.0,88,0.00,,,0.00,Wunderground v.1.15,2013-05-09 05:10:00,
2013-05-09 00:20:00,58.1,54.6,30.02,NE,48,7.0,7.0,88,0.00,,,0.00,Wunderground v.1.15,2013-05-09 05:20:00,
2013-05-09 00:30:00,58.0,54.2,30.02,ENE,62,8.0,10.0,87,0.00,,,0.00,Wunderground v.1.15,2013-05-09 05:30:00,
2013-05-09 00:40:00,57.8,54.3,30.02,East,80,9.0,9.0,88,0.00,,,0.00,Wunderground v.1.15,2013-05-09 05:40:00,
2013-05-09 00:50:00,57.7,54.2,30.01,NE,53,8.0,8.0,88,0.00,,,0.00,Wunderground v.1.15,2013-05-09 05:50:00,
2013-05-09 01:00:00,57.3,54.1,30.01,NNE,31,8.0,10.0,89,0.00,,,0.00,Wunderground v.1.15,2013-05-09 06:00:00,
2013-05-09 01:05:00,57.1,54.2,30.01,ENE,71,8.0,11.0,90,0.00,,,0.00,Wunderground v.1.15,2013-05-09 06:05:00,
2013-05-09 01:15:00,56.9,54.0,30.01,ENE,58,8.0,8.0,90,0.00,,,0.00,Wunderground v.1.15,2013-05-09 06:15:00,
2013-05-09 01:25:00,56.9,54.0,30.01,ENE,64,7.0,9.0,90,0.00,,,0.00,Wunderground v.1.15,2013-05-09 06:25:00,
2013-05-09 01:35:00,56.9,54.0,30.01,ENE,59,7.0,8.0,90,0.00,,,0.00,Wunderground v.1.15,2013-05-09 06:35:00,
2013-05-09 01:45:00,56.9,54.0,30.01,North,8,7.0,7.0,90,0.00,,,0.00,Wunderground v.1.15,2013-05-09 06:45:00,
2013-05-09 01:55:00,56.7,53.8,30.00,NNE,22,8.0,11.0,90,0.00,,,0.00,Wunderground v.1.15,2013-05-09 06:55:00,
2013-05-09 02:05:00,56.6,53.7,30.00,NNE,33,7.0,9.0,90,0.00,,,0.00,Wunderground v.1.15,2013-05-09 07:05:00,
2013-05-09 02:15:00,56.4,53.5,30.00,NNE,27,7.0,7.0,90,0.00,,,0.00,Wunderground v.1.15,2013-05-09 07:15:00,
2013-05-09 02:25:00,56.4,53.5,30.00,NE,43,6.0,12.0,90,0.00,,,0.00,Wunderground v.1.15,2013-05-09 07:25:00,
2013-05-09 02:35:00,56.3,53.4,30.00,NNE,30,6.0,7.0,90,0.00,,,0.00,Wunderground v.1.15,2013-05-09 07:35:00,
2013-05-09 02:45:00,56.3,53.4,30.00,NNE,22,6.0,6.0,90,0.00,,,0.00,Wunderground v.1.15,2013-05-09 07:45:00,
2013-05-09 02:55:00,56.4,53.5,30.00,NE,47,6.0,6.0,90,0.00,,,0.00,Wunderground v.1.15,2013-05-09 07:55:00,
2013-05-09 03:05:00,56.5,53.3,30.00,NNE,22,6.0,7.0,89,0.00,,,0.00,Wunderground v.1.15,2013-05-09 08:05:00,
2013-05-09 03:15:00,56.5,53.3,30.00,North,4,6.0,8.0,89,0.00,,,0.00,Wunderground v.1.15,2013-05-09 08:15:00,
2013-05-09 03:20:00,56.4,53.2,30.00,NNE,14,6.0,6.0,89,0.00,,,0.00,Wunderground v.1.15,2013-05-09 08:20:00,
2013-05-09 03:30:00,56.2,53.3,30.00,NNE,21,6.0,7.0,90,0.00,,,0.00,Wunderground v.1.15,2013-05-09 08:30:00,
2013-05-09 03:35:00,56.1,53.2,30.00,NE,47,6.0,7.0,90,0.00,,,0.00,Wunderground v.1.15,2013-05-09 08:35:00,
2013-05-09 03:45:00,56.0,53.4,30.00,NNE,12,6.0,9.0,91,0.00,,,0.00,Wunderground v.1.15,2013-05-09 08:45:00,
2013-05-09 03:55:00,56.1,53.2,30.00,NNE,23,6.0,8.0,90,0.00,,,0.00,Wunderground v.1.15,2013-05-09 08:55:00,
2013-05-09 04:05:00,56.1,53.2,30.00,NNE,31,6.0,7.0,90,0.00,,,0.00,Wunderground v.1.15,2013-05-09 09:05:00,
2013-05-09 04:15:00,56.2,53.0,30.00,NNE,12,6.0,6.0,89,0.00,,,0.00,Wunderground v.1.15,2013-05-09 09:15:00,
2013-05-09 04:20:00,56.3,53.1,30.00,NNE,31,6.0,9.0,89,0.00,,,0.00,Wunderground v.1.15,2013-05-09 09:20:00,
2013-05-09 04:30:00,56.4,52.9,29.99,NE,38,6.0,7.0,88,0.00,,,0.00,Wunderground v.1.15,2013-05-09 09:30:00,
2013-05-09 04:40:00,56.5,53.0,29.99,NE,41,5.0,10.0,88,0.00,,,0.00,Wunderground v.1.15,2013-05-09 09:40:00,
2013-05-09 04:45:00,56.5,53.0,29.99,NNE,13,6.0,10.0,88,0.00,,,0.00,Wunderground v.1.15,2013-05-09 09:45:00,
2013-05-09 04:55:00,56.5,52.7,29.99,NE,39,6.0,9.0,87,0.00,,,0.00,Wunderground v.1.15,2013-05-09 09:55:00,
2013-05-09 05:05:00,56.6,52.8,30.00,NE,48,6.0,6.0,87,0.00,,,0.00,Wunderground v.1.15,2013-05-09 10:05:00,
2013-05-09 05:15:00,56.7,52.9,29.99,North,10,6.0,7.0,87,0.00,,,0.00,Wunderground v.1.15,2013-05-09 10:15:00,
2013-05-09 05:20:00,56.7,52.6,29.99,NE,52,6.0,7.0,86,0.00,,,0.00,Wunderground v.1.15,2013-05-09 10:20:00,
2013-05-09 05:30:00,56.7,52.6,30.00,NNE,14,6.0,6.0,86,0.00,,,0.00,Wunderground v.1.15,2013-05-09 10:30:00,
2013-05-09 05:40:00,56.7,52.6,30.00,NE,54,6.0,6.0,86,0.00,,,0.00,Wunderground v.1.15,2013-05-09 10:40:00,
2013-05-09 05:50:00,56.6,52.8,30.00,NE,40,6.0,7.0,87,0.00,,,0.00,Wunderground v.1.15,2013-05-09 10:50:00,
2013-05-09 05:55:00,56.5,52.7,30.00,NNE,33,6.0,7.0,87,0.00,,,0.00,Wunderground v.1.15,2013-05-09 10:55:00,
2013-05-09 06:05:00,56.4,52.9,30.00,NNE,31,6.0,6.0,88,0.00,,,0.00,Wunderground v.1.15,2013-05-09 11:05:00,
2013-05-09 06:15:00,56.3,52.8,30.00,NNE,23,5.0,7.0,88,0.00,,,0.00,Wunderground v.1.15,2013-05-09 11:15:00,
2013-05-09 06:20:00,56.3,52.8,30.00,NE,48,6.0,6.0,88,0.00,,,0.00,Wunderground v.1.15,2013-05-09 11:20:00,
2013-05-09 06:30:00,56.2,52.7,30.00,NNE,32,6.0,6.0,88,0.00,,,0.00,Wunderground v.1.15,2013-05-09 11:30:00,
2013-05-09 06:40:00,56.1,52.6,30.00,NNE,16,7.0,8.0,88,0.00,,,0.00,Wunderground v.1.15,2013-05-09 11:40:00,
2013-05-09 06:50:00,56.2,52.7,30.00,North,10,6.0,9.0,88,0.00,,,0.00,Wunderground v.1.15,2013-05-09 11:50:00,
2013-05-09 06:55:00,56.3,52.8,30.00,NNE,33,7.0,9.0,88,0.00,,,0.00,Wunderground v.1.15,2013-05-09 11:55:00,
2013-05-09 07:05:00,56.4,52.9,30.00,NNE,15,8.0,9.0,88,0.00,,,0.00,Wunderground v.1.15,2013-05-09 12:05:00,
2013-05-09 07:15:00,56.6,53.1,30.01,NNE,19,8.0,9.0,88,0.00,,,0.00,Wunderground v.1.15,2013-05-09 12:15:00,
2013-05-09 07:25:00,56.8,53.3,30.01,NE,48,6.0,11.0,88,0.00,,,0.00,Wunderground v.1.15,2013-05-09 12:25:00,
2013-05-09 07:35:00,56.8,53.0,30.02,NE,46,7.0,7.0,87,0.00,,,0.00,Wunderground v.1.15,2013-05-09 12:35:00,
2013-05-09 07:40:00,56.8,53.3,30.02,NE,46,5.0,8.0,88,0.00,,,0.00,Wunderground v.1.15,2013-05-09 12:40:00,
2013-05-09 07:50:00,56.8,53.0,30.02,NE,51,7.0,7.0,87,0.00,,,0.00,Wunderground v.1.15,2013-05-09 12:50:00,
2013-05-09 08:00:00,56.9,53.1,30.02,North,354,7.0,11.0,87,0.00,,,0.00,Wunderground v.1.15,2013-05-09 13:00:00,
2013-05-09 08:05:00,56.9,53.1,30.02,NE,54,8.0,11.0,87,0.00,,,0.00,Wunderground v.1.15,2013-05-09 13:05:00,
2013-05-09 08:15:00,56.9,53.1,30.02,NNE,16,8.0,8.0,87,0.00,,,0.00,Wunderground v.1.15,2013-05-09 13:15:00,
2013-05-09 08:20:00,56.8,53.3,30.02,NNE,16,8.0,10.0,88,0.00,,,0.00,Wunderground v.1.15,2013-05-09 13:20:00,
2013-05-09 08:30:00,56.8,53.0,30.02,NE,36,9.0,9.0,87,0.00,,,0.00,Wunderground v.1.15,2013-05-09 13:30:00,
2013-05-09 08:40:00,56.7,53.2,30.02,NE,41,8.0,9.0,88,0.00,,,0.00,Wunderground v.1.15,2013-05-09 13:40:00,
2013-05-09 08:50:00,56.5,53.3,30.02,NE,46,9.0,9.0,89,0.00,,,0.00,Wunderground v.1.15,2013-05-09 13:50:00,
2013-05-09 09:00:00,56.4,53.2,30.03,NE,45,9.0,9.0,89,0.00,,,0.00,Wunderground v.1.15,2013-05-09 14:00:00,
2013-05-09 09:05:00,56.4,53.2,30.03,NNE,31,9.0,10.0,89,0.00,,,0.00,Wunderground v.1.15,2013-05-09 14:05:00,
2013-05-09 09:15:00,56.6,53.4,30.03,North,359,8.0,8.0,89,0.00,,,0.00,Wunderground v.1.15,2013-05-09 14:15:00,
2013-05-09 09:25:00,56.7,53.5,30.03,NE,43,7.0,8.0,89,0.00,,,0.00,Wunderground v.1.15,2013-05-09 14:25:00,
2013-05-09 09:35:00,56.7,53.5,30.04,NE,42,8.0,12.0,89,0.00,,,0.00,Wunderground v.1.15,2013-05-09 14:35:00,
2013-05-09 09:45:00,56.6,53.4,30.04,NE,34,7.0,8.0,89,0.00,,,0.00,Wunderground v.1.15,2013-05-09 14:45:00,
2013-05-09 09:50:00,56.6,53.4,30.04,NE,37,7.0,10.0,89,0.00,,,0.00,Wunderground v.1.15,2013-05-09 14:50:00,
2013-05-09 10:00:00,56.6,53.4,30.04,NE,39,7.0,7.0,89,0.00,,,0.00,Wunderground v.1.15,2013-05-09 15:00:00,
2013-05-09 10:05:00,56.5,53.3,30.04,NE,38,8.0,8.0,89,0.00,,,0.00,Wunderground v.1.15,2013-05-09 15:05:00,
2013-05-09 10:15:00,56.6,53.4,30.04,NE,46,6.0,7.0,89,0.00,,,0.00,Wunderground v.1.15,2013-05-09 15:15:00,
2013-05-09 10:20:00,56.6,53.4,30.04,NNE,29,7.0,7.0,89,0.00,,,0.00,Wunderground v.1.15,2013-05-09 15:20:00,
2013-05-09 10:30:00,56.6,53.4,30.05,NE,49,9.0,9.0,89,0.00,,,0.00,Wunderground v.1.15,2013-05-09 15:30:00,
2013-05-09 10:40:00,56.8,53.6,30.05,NE,41,7.0,7.0,89,0.00,,,0.00,Wunderground v.1.15,2013-05-09 15:40:00,
2013-05-09 10:50:00,56.8,53.6,30.05,NE,34,7.0,7.0,89,0.00,,,0.00,Wunderground v.1.15,2013-05-09 15:50:00,
2013-05-09 10:55:00,56.7,53.5,30.05,NNE,23,8.0,8.0,89,0.00,,,0.00,Wunderground v.1.15,2013-05-09 15:55:00,
2013-05-09 11:05:00,56.7,53.5,30.05,NNE,13,9.0,15.0,89,0.00,,,0.00,Wunderground v.1.15,2013-05-09 16:05:00,
2013-05-09 11:15:00,56.8,53.6,30.05,NE,41,11.0,11.0,89,0.00,,,0.00,Wunderground v.1.15,2013-05-09 16:15:00,
2013-05-09 11:25:00,57.0,53.5,30.05,NNE,18,10.0,15.0,88,0.00,,,0.00,Wunderground v.1.15,2013-05-09 16:25:00,
2013-05-09 11:35:00,57.1,53.6,30.05,NE,49,10.0,10.0,88,0.00,,,0.00,Wunderground v.1.15,2013-05-09 16:35:00,
2013-05-09 11:45:00,57.3,53.8,30.05,NNE,29,10.0,15.0,88,0.00,,,0.00,Wunderground v.1.15,2013-05-09 16:45:00,
2013-05-09 11:55:00,57.2,53.4,30.06,North,4,11.0,15.0,87,0.00,,,0.00,Wunderground v.1.15,2013-05-09 16:55:00,
2013-05-09 12:05:00,57.1,53.3,30.06,NNE,21,11.0,11.0,87,0.00,,,0.00,Wunderground v.1.15,2013-05-09 17:05:00,
2013-05-09 12:15:00,57.1,53.6,30.06,ENE,61,7.0,10.0,88,0.00,,,0.00,Wunderground v.1.15,2013-05-09 17:15:00,
2013-05-09 12:25:00,56.7,52.9,30.06,NE,45,9.0,10.0,87,0.00,,,0.00,Wunderground v.1.15,2013-05-09 17:25:00,
2013-05-09 12:30:00,56.6,52.8,30.06,NE,39,9.0,9.0,87,0.00,,,0.00,Wunderground v.1.15,2013-05-09 17:30:00,
2013-05-09 12:40:00,56.0,52.2,30.06,North,4,10.0,10.0,87,0.00,,,0.00,Wunderground v.1.15,2013-05-09 17:40:00,
2013-05-09 12:50:00,55.5,51.7,30.06,ENE,71,10.0,13.0,87,0.00,,,0.00,Wunderground v.1.15,2013-05-09 17:50:00,
2013-05-09 12:55:00,55.3,51.5,30.06,NNE,27,10.0,13.0,87,0.00,,,0.00,Wunderground v.1.15,2013-05-09 17:55:00,
2013-05-09 13:05:00,54.7,50.6,30.07,North,10,11.0,15.0,86,0.00,,,0.00,Wunderground v.1.15,2013-05-09 18:05:00,
2013-05-09 13:15:00,54.2,50.4,30.07,NE,51,10.0,11.0,87,0.00,,,0.00,Wunderground v.1.15,2013-05-09 18:15:00,
2013-05-09 13:25:00,54.3,50.8,30.07,NNE,12,9.0,18.0,88,0.00,,,0.00,Wunderground v.1.15,2013-05-09 18:25:00,
2013-05-09 13:35:00,54.0,50.8,30.07,NNE,20,11.0,11.0,89,0.00,,,0.00,Wunderground v.1.15,2013-05-09 18:35:00,
2013-05-09 13:45:00,53.5,50.3,30.08,North,10,11.0,11.0,89,0.00,,,0.00,Wunderground v.1.15,2013-05-09 18:45:00,
2013-05-09 13:50:00,53.3,49.8,30.08,NNE,29,10.0,11.0,88,0.00,,,0.00,Wunderground v.1.15,2013-05-09 18:50:00,
2013-05-09 14:00:00,52.5,49.0,30.08,NNE,23,11.0,11.0,88,0.00,,,0.00,Wunderground v.1.15,2013-05-09 19:00:00,
2013-05-09 14:05:00,52.5,49.0,30.08,NNE,25,10.0,16.0,88,0.00,,,0.00,Wunderground v.1.15,2013-05-09 19:05:00,
2013-05-09 14:15:00,52.4,48.9,30.08,NE,39,11.0,18.0,88,0.00,,,0.00,Wunderground v.1.15,2013-05-09 19:15:00,
2013-05-09 14:25:00,51.6,48.2,30.08,NE,53,11.0,11.0,88,0.00,,,0.00,Wunderground v.1.15,2013-05-09 19:25:00,
2013-05-09 14:35:00,51.5,48.1,30.08,NNE,30,11.0,12.0,88,0.00,,,0.00,Wunderground v.1.15,2013-05-09 19:35:00,
2013-05-09 14:45:00,51.2,47.5,30.08,NNE,23,12.0,12.0,87,0.00,,,0.00,Wunderground v.1.15,2013-05-09 19:45:00,
2013-05-09 14:50:00,51.0,47.0,30.08,NNE,19,13.0,13.0,86,0.00,,,0.00,Wunderground v.1.15,2013-05-09 19:50:00,
2013-05-09 15:00:00,51.4,47.7,30.08,North,354,10.0,14.0,87,0.00,,,0.00,Wunderground v.1.15,2013-05-09 20:00:00,
2013-05-09 15:05:00,51.1,47.7,30.08,NE,41,11.0,14.0,88,0.00,,,0.00,Wunderground v.1.15,2013-05-09 20:05:00,
2013-05-09 15:15:00,50.8,47.4,30.08,North,359,9.0,13.0,88,0.00,,,0.00,Wunderground v.1.15,2013-05-09 20:15:00,
2013-05-09 15:20:00,50.7,47.0,30.08,NE,36,10.0,11.0,87,0.00,,,0.00,Wunderground v.1.15,2013-05-09 20:20:00,
2013-05-09 15:30:00,51.2,47.2,30.08,NNE,33,11.0,11.0,86,0.00,,,0.00,Wunderground v.1.15,2013-05-09 20:30:00,
2013-05-09 15:40:00,51.8,47.4,30.08,NNE,25,11.0,11.0,85,0.00,,,0.00,Wunderground v.1.15,2013-05-09 20:40:00,
2013-05-09 15:45:00,52.3,47.9,30.08,North,4,11.0,11.0,85,0.00,,,0.00,Wunderground v.1.15,2013-05-09 20:45:00,
2013-05-09 15:55:00,53.2,48.2,30.08,North,4,10.0,13.0,83,0.00,,,0.00,Wunderground v.1.15,2013-05-09 20:55:00,
2013-05-09 16:05:00,53.9,48.9,30.08,NNE,27,11.0,14.0,83,0.00,,,0.00,Wunderground v.1.15,2013-05-09 21:05:00,
2013-05-09 16:15:00,54.6,48.9,30.08,NE,42,12.0,12.0,81,0.00,,,0.00,Wunderground v.1.15,2013-05-09 21:15:00,
2013-05-09 16:25:00,55.1,49.0,30.08,North,4,11.0,11.0,80,0.00,,,0.00,Wunderground v.1.15,2013-05-09 21:25:00,
2013-05-09 16:35:00,55.4,48.3,30.08,NE,41,13.0,13.0,77,0.00,,,0.00,Wunderground v.1.15,2013-05-09 21:35:00,
2013-05-09 16:45:00,55.0,48.6,30.08,North,354,11.0,14.0,79,0.00,,,0.00,Wunderground v.1.15,2013-05-09 21:45:00,
2013-05-09 16:55:00,54.4,47.7,30.08,NW,324,13.0,17.0,78,0.00,,,0.00,Wunderground v.1.15,2013-05-09 21:55:00,
2013-05-09 17:00:00,53.9,47.2,30.08,NNE,23,13.0,14.0,78,0.00,,,0.00,Wunderground v.1.15,2013-05-09 22:00:00,
2013-05-09 17:05:00,53.2,46.5,30.08,NE,37,12.0,14.0,78,0.00,,,0.00,Wunderground v.1.15,2013-05-09 22:05:00,
2013-05-09 17:15:00,51.7,45.1,30.09,NE,36,12.0,15.0,78,0.00,,,0.00,Wunderground v.1.15,2013-05-09 22:15:00,
2013-05-09 17:25:00,51.2,44.9,30.09,NE,44,12.0,12.0,79,0.00,,,0.00,Wunderground v.1.15,2013-05-09 22:25:00,
2013-05-09 17:35:00,50.8,44.5,30.10,NE,54,12.0,13.0,79,0.00,,,0.00,Wunderground v.1.15,2013-05-09 22:35:00,
2013-05-09 17:45:00,50.6,44.3,30.10,NNE,25,11.0,12.0,79,0.00,,,0.00,Wunderground v.1.15,2013-05-09 22:45:00,
2013-05-09 17:50:00,50.6,44.0,30.10,NNE,27,11.0,11.0,78,0.00,,,0.00,Wunderground v.1.15,2013-05-09 22:50:00,
2013-05-09 18:00:00,50.7,44.1,30.10,NNE,32,10.0,10.0,78,0.00,,,0.00,Wunderground v.1.15,2013-05-09 23:00:00,
2013-05-09 18:05:00,50.9,44.3,30.10,NNE,24,9.0,10.0,78,0.00,,,0.00,Wunderground v.1.15,2013-05-09 23:05:00,
2013-05-09 18:15:00,50.5,43.9,30.10,NNE,16,12.0,17.0,78,0.00,,,0.00,Wunderground v.1.15,2013-05-09 23:15:00,
2013-05-09 18:25:00,50.1,43.2,30.11,ENE,63,11.0,12.0,77,0.00,,,0.00,Wunderground v.1.15,2013-05-09 23:25:00,
2013-05-09 18:35:00,49.4,42.5,30.11,NE,38,11.0,11.0,77,0.00,,,0.00,Wunderground v.1.15,2013-05-09 23:35:00,
2013-05-09 18:45:00,48.7,41.5,30.11,NE,49,12.0,12.0,76,0.00,,,0.00,Wunderground v.1.15,2013-05-09 23:45:00,
2013-05-09 18:50:00,48.8,41.9,30.11,NNE,29,10.0,14.0,77,0.00,,,0.00,Wunderground v.1.15,2013-05-09 23:50:00,
2013-05-09 18:55:00,48.6,41.7,30.11,NNE,18,11.0,14.0,77,0.00,,,0.00,Wunderground v.1.15,2013-05-09 23:55:00,
2013-05-09 19:05:00,48.6,41.7,30.12,NNE,13,10.0,11.0,77,0.00,,,0.00,Wunderground v.1.15,2013-05-10 00:05:00,
2013-05-09 19:15:00,48.2,41.0,30.12,NE,43,11.0,17.0,76,0.00,,,0.00,Wunderground v.1.15,2013-05-10 00:15:00,
2013-05-09 19:25:00,48.1,40.9,30.12,NNE,21,11.0,11.0,76,0.00,,,0.00,Wunderground v.1.15,2013-05-10 00:25:00,
2013-05-09 19:30:00,48.2,41.3,30.12,NNE,33,10.0,10.0,77,0.00,,,0.00,Wunderground v.1.15,2013-05-10 00:30:00,
2013-05-09 19:40:00,48.3,40.7,30.13,NNE,23,9.0,14.0,75,0.00,,,0.00,Wunderground v.1.15,2013-05-10 00:40:00,
2013-05-09 19:50:00,48.0,40.5,30.12,NNE,14,10.0,11.0,75,0.00,,,0.00,Wunderground v.1.15,2013-05-10 00:50:00,
2013-05-09 20:00:00,47.6,39.7,30.13,NE,56,11.0,11.0,74,0.00,,,0.00,Wunderground v.1.15,2013-05-10 01:00:00,
2013-05-09 20:05:00,47.5,39.6,30.13,NNE,22,10.0,11.0,74,0.00,,,0.00,Wunderground v.1.15,2013-05-10 01:05:00,
2013-05-09 20:15:00,47.3,39.4,30.13,ENE,63,9.0,9.0,74,0.00,,,0.00,Wunderground v.1.15,2013-05-10 01:15:00,
2013-05-09 20:25:00,47.0,39.5,30.13,NE,47,9.0,11.0,75,0.00,,,0.00,Wunderground v.1.15,2013-05-10 01:25:00,
2013-05-09 20:30:00,46.8,39.3,30.13,NNE,25,10.0,10.0,75,0.00,,,0.00,Wunderground v.1.15,2013-05-10 01:30:00,
2013-05-09 20:40:00,46.6,39.4,30.14,North,4,10.0,12.0,76,0.00,,,0.00,Wunderground v.1.15,2013-05-10 01:40:00,
2013-05-09 20:50:00,46.7,39.9,30.14,NNE,18,9.0,9.0,77,0.00,,,0.00,Wunderground v.1.15,2013-05-10 01:50:00,
2013-05-09 21:00:00,46.7,39.5,30.15,NNE,23,8.0,9.0,76,0.00,,,0.00,Wunderground v.1.15,2013-05-10 02:00:00,
2013-05-09 21:05:00,46.7,39.2,30.15,NNE,33,10.0,12.0,75,0.00,,,0.00,Wunderground v.1.15,2013-05-10 02:05:00,
2013-05-09 21:15:00,46.8,38.9,30.15,NE,47,10.0,14.0,74,0.00,,,0.00,Wunderground v.1.15,2013-05-10 02:15:00,
2013-05-09 21:20:00,46.8,38.6,30.15,NE,37,9.0,9.0,73,0.00,,,0.00,Wunderground v.1.15,2013-05-10 02:20:00,
2013-05-09 21:30:00,46.5,38.0,30.16,NE,43,9.0,10.0,72,0.00,,,0.00,Wunderground v.1.15,2013-05-10 02:30:00,
2013-05-09 21:40:00,46.4,37.1,30.16,NNE,18,8.0,8.0,70,0.00,,,0.00,Wunderground v.1.15,2013-05-10 02:40:00,
2013-05-09 21:50:00,46.5,36.5,30.16,NE,52,8.0,8.0,68,0.00,,,0.00,Wunderground v.1.15,2013-05-10 02:50:00,
2013-05-09 21:55:00,46.4,36.0,30.16,North,10,7.0,8.0,67,0.00,,,0.00,Wunderground v.1.15,2013-05-10 02:55:00,
2013-05-09 22:05:00,46.1,35.4,30.16,NNE,28,7.0,8.0,66,0.00,,,0.00,Wunderground v.1.15,2013-05-10 03:05:00,
2013-05-09 22:15:00,45.8,35.5,30.17,NNE,15,7.0,8.0,67,0.00,,,0.00,Wunderground v.1.15,2013-05-10 03:15:00,
2013-05-09 22:25:00,45.2,36.0,30.17,NNE,25,7.0,7.0,70,0.00,,,0.00,Wunderground v.1.15,2013-05-10 03:25:00,
2013-05-09 22:35:00,45.0,35.8,30.17,NNE,33,6.0,10.0,70,0.00,,,0.00,Wunderground v.1.15,2013-05-10 03:35:00,
2013-05-09 22:45:00,44.7,35.5,30.17,NE,36,6.0,8.0,70,0.00,,,0.00,Wunderground v.1.15,2013-05-10 03:45:00,
2013-05-09 22:55:00,44.7,35.1,30.17,NNE,12,7.0,7.0,69,0.00,,,0.00,Wunderground v.1.15,2013-05-10 03:55:00,
2013-05-09 23:00:00,44.7,35.1,30.17,NNE,21,7.0,10.0,69,0.00,,,0.00,Wunderground v.1.15,2013-05-10 04:00:00,
2013-05-09 23:05:00,44.7,34.8,30.17,NE,44,7.0,10.0,68,0.00,,,0.00,Wunderground v.1.15,2013-05-10 04:05:00,
2013-05-09 23:10:00,44.7,34.4,30.17,ENE,64,7.0,9.0,67,0.00,,,0.00,Wunderground v.1.15,2013-05-10 04:10:00,
2013-05-09 23:15:00,44.7,34.4,30.17,ENE,68,8.0,9.0,67,0.00,,,0.00,Wunderground v.1.15,2013-05-10 04:15:00,
2013-05-09 23:25:00,44.5,34.6,30.17,NNE,27,7.0,8.0,68,0.00,,,0.00,Wunderground v.1.15,2013-05-10 04:25:00,
2013-05-09 23:30:00,44.3,34.8,30.17,NNE,13,7.0,11.0,69,0.00,,,0.00,Wunderground v.1.15,2013-05-10 04:30:00,
2013-05-09 23:40:00,44.0,34.8,30.17,NNE,23,7.0,11.0,70,0.00,,,0.00,Wunderground v.1.15,2013-05-10 04:40:00,
2013-05-09 23:50:00,43.7,34.9,30.17,NE,46,7.0,7.0,71,0.00,,,0.00,Wunderground v.1.15,2013-05-10 04:50:00,